Tiempo atmosférico en la estación meteorológica de Torremolinos, Málaga (85 m.)



Fecha
DESCASC
Temp. máxima en grados centígrados (hora)
DESCASC
Temp. mínima en grados centígrados (hora)
DESCASC
Temp. media en grados centígrados
DESCASC
Racha de viento máxima en m/sg (hora)
DESCASC
Velocidad máxima media en intervalos de 10 minutos(hora)
DESCASC
Precipitaciones diarias en mm
DESCASC
Precipitaciones de 00:00 a 06:00 en mm
DESCASC
Precipitaciones de 06:00 a 12:00 en mm
DESCASC
Precipitaciones de 12:00 a 18:00 en mm
DESCASC
Precipitaciones de 18:00 a 24:00 en mm
DESCASC
25-04-2019 17.7 (18:10) 14.7 (11:10) 16.2 8.61 (07:20) 3.33 (02:10) 9.2 0 9.2 0 0
24-04-2019 19.4 (17:50) 10 (06:50) 14.7 11.94 (20:30) 4.72 (13:30) 0.2 0 0.2 0 0
23-04-2019 17.6 (16:20) 11.1 (11:30) 14.4 10.28 (11:20) 5.28 (11:20) 7.8 0 7.8 0 0
22-04-2019 24.3 (15:30) 13.8 (00:00) 19 10.28 (02:50) 4.72 (09:20) 0 0 0 0 0
21-04-2019 19.3 (16:10) 12.5 (00:00) 15.9 7.22 (09:00) 3.61 (14:30) 3.8 0 0 1.2 2.6
20-04-2019 18.9 (12:50) 12.5 (00:00) 15.7 7.78 (10:10) 3.61 (13:40) 0 0 0 0 0
19-04-2019 19.7 (11:40) 11.8 (00:00) 15.8 8.06 (09:30) 3.61 (06:00) 0.2 0 0.2 0 0
18-04-2019 18.2 (14:40) 12.7 (00:00) 15.5 8.33 (15:30) 3.89 (22:10) 13.6 1 4.2 7.4 1
17-04-2019 17.9 (12:00) 14.3 (00:00) 16.1 7.22 (11:40) 3.33 (17:20) 0 0 0 0 0
16-04-2019 21.9 (12:20) 15.2 (00:00) 18.5 10.56 (06:30) 4.72 (07:00) 0 0 0 0 0
15-04-2019 24.7 (15:50) 14.4 (00:00) 19.6 8.61 (17:00) 4.17 (16:30) 0 0 0 0 0
14-04-2019 23.4 (16:20) 17.7 (00:00) 20.6 9.72 (06:10) 4.72 (06:40) 0 0 0 0 0
13-04-2019 24.5 (13:10) 17 (00:00) 20.8 9.44 (16:50) 4.44 (16:50) 0 0 0 0 0
12-04-2019 22 (12:00) 15.5 (00:00) 18.8 8.33 (14:30) 3.89 (06:10) 0 0 0 0 0
11-04-2019 23.3 (16:40) 13.8 (00:00) 18.5 8.61 (13:20) 3.89 (06:40) 0 0 0 0 0
10-04-2019 20.7 (17:30) 12.1 (00:00) 16.4 10.83 (16:00) 3.61 (16:10) 0 0 0 0 0
09-04-2019 21 (18:40) 11.1 (00:00) 16.1 7.5 (17:20) 3.06 (14:10) 0 0 0 0 0
08-04-2019 21.4 (17:10) 12.5 (00:00) 16.9 9.72 (15:10) 3.89 (15:50) 0 0 0 0 0
07-04-2019 17.7 (16:50) 10.5 (00:00) 14.1 6.39 (18:00) 2.5 (18:10) 0.2 0.2 0 0 0
06-04-2019 16.2 (16:30) 9.3 (00:00) 12.8 8.89 (13:40) 2.5 (13:00) 3 0 0 3 0
05-04-2019 17.5 (17:50) 11.6 (00:00) 14.6 10.83 (19:30) 2.78 (11:50) 11 0 5.6 5.4 0
04-04-2019 20 (15:20) 12.7 (00:00) 16.3 11.39 (17:50) 5 (16:00) 0 0 0 0 0
03-04-2019 22.2 (17:10) 14.3 (00:00) 18.3 10 (23:10) 3.89 (23:59) 0 0 0 0 0
02-04-2019 19.9 (17:00) 10.8 (00:00) 15.3 7.78 (16:10) 4.44 (17:10) 0 0 0 0 0
01-04-2019 17.2 (18:20) 11.6 (00:00) 14.4 6.11 (17:30) 2.78 (17:20) 4 0.4 1.4 2.2 0
31-03-2019 17.6 (16:30) 12.5 (00:00) 15.1 7.5 (18:10) 3.89 (17:20) 14 3.2 10.4 0 0.4
30-03-2019 16.5 (11:30) 13.7 (00:00) 15.1 7.78 (11:40) 4.44 (12:00) 0 0 0 0 0
29-03-2019 17.3 (13:50) 13.9 (00:00) 15.6 7.5 (11:40) 3.61 (11:40) 0 0 0 0 0
28-03-2019 17.1 (15:50) 13.3 (00:00) 15.2 9.44 (13:30) 5.83 (13:30) 0 0 0 0 0
27-03-2019 17.9 (12:30) 14.1 (00:00) 16 12.22 (08:50) 5.28 (09:20) 0 0 0 0 0

Gráficas

Temp. máximas Temp. mínimas Temp. medias Precipitaciones Rachas de viento máximas Velocidades máximas media en intervalos de 10 minutos

Datos horarios

Fecha y hora oficial Temperatura (ºC) Velocidad del viento (km/h) Dirección del viento Racha (km/h) Dirección de racha Precipitación (mm) Presión (hPa) Tendencia (hPa) Humedad (%)
2019-04-25 23:00:00 15 4 Noroeste 24 Norte 0 -- -- 63
2019-04-25 22:00:00 15.9 8 Norte 21 Noroeste 0 -- -- 58
2019-04-25 21:00:00 16.4 9 Norte 23 Norte 0 -- -- 57
2019-04-25 20:00:00 16.9 3 Oeste 20 Sudoeste 0 -- -- 76
2019-04-25 19:00:00 17.7 6 Sudoeste 17 Sudoeste 0 -- -- 74
2019-04-25 18:00:00 17.6 5 Sudoeste 20 Sudoeste 0 -- -- 76
2019-04-25 17:00:00 17.4 7 Sudoeste 13 Sudoeste 0 -- -- 76
2019-04-25 16:00:00 16.8 4 Sudoeste 15 Oeste 0 -- -- 81
2019-04-25 15:00:00 16.4 5 Sur 13 Sudoeste 0 -- -- 85
2019-04-25 14:00:00 15.8 6 Sudoeste 18 Oeste 0 -- -- 88
2019-04-25 13:00:00 15.6 5 Sur 12 Este 0 -- -- 93
2019-04-25 12:00:00 15.5 6 Sudeste 13 Sudeste 0.8 -- -- 95
2019-04-25 11:00:00 14.9 4 Noroeste 16 Sudoeste 1.2 -- -- 95
2019-04-25 10:00:00 15.2 9 Sudoeste 25 Sudoeste 1.4 -- -- 95
2019-04-25 09:00:00 14.9 9 Sudoeste 30 Oeste 3.4 -- -- 95
2019-04-25 08:00:00 14.9 11 Sudoeste 31 Sudoeste 1.8 -- -- 94
2019-04-25 07:00:00 15.1 9 Sudoeste 28 Sur 0.6 -- -- 93
2019-04-25 06:00:00 15.4 8 Sudoeste 26 Sudoeste 0 -- -- 91
2019-04-25 05:00:00 15.5 6 Sudoeste 24 Sudoeste 0 -- -- 91
2019-04-25 04:00:00 15.4 10 Sudoeste 27 Sudoeste 0 -- -- 90
2019-04-25 03:00:00 15.8 8 Sudoeste 27 Sur 0 -- -- 83
2019-04-25 02:00:00 15.8 9 Sudoeste 31 Sudoeste 0 -- -- 81
2019-04-25 01:00:00 16.5 8 Oeste 29 Sudoeste 0 -- -- 72
2019-04-25 00:00:00 15.8 5 Sudoeste 20 Sudoeste 0 -- -- 73
2019-04-24 23:00:00 16.3 5 Sudeste 19 Oeste 0 -- -- 64
2019-04-24 22:00:00 16.6 9 Sudoeste 27 Sudoeste 0 -- -- 57
2019-04-24 21:00:00 17 9 Sudoeste 43 Oeste 0 -- -- 54
2019-04-24 20:00:00 17.9 9 Sudoeste 28 Sudoeste 0 -- -- 54
2019-04-24 19:00:00 18.9 9 Oeste 35 Sudoeste 0 -- -- 51
2019-04-24 18:00:00 19.4 13 Sudoeste 33 Oeste 0 -- -- 49
2019-04-24 17:00:00 18.2 12 Sudoeste 31 Oeste 0 -- -- 58
2019-04-24 16:00:00 18.2 11 Sudoeste 35 Sudoeste 0 -- -- 55
2019-04-24 15:00:00 18.1 12 Sudoeste 32 Oeste 0 -- -- 55
2019-04-24 14:00:00 17.2 9 Sudoeste 34 Sudoeste 0 -- -- 62
2019-04-24 13:00:00 16.8 11 Sudoeste 36 Sudoeste 0 -- -- 64
2019-04-24 12:00:00 15 12 Sudoeste 27 Sudoeste 0 -- -- 73
2019-04-24 11:00:00 14 7 Sudoeste 14 Sudoeste 0.2 -- -- 83
2019-04-24 10:00:00 13.4 3 Sur 16 Sudoeste 0 -- -- 82
2019-04-24 09:00:00 13.5 5 Sur 13 Sur 0 -- -- 73
2019-04-24 08:00:00 10.8 0 Calma 6 Sudoeste 0 -- -- 75
2019-04-24 07:00:00 10 0 Calma 4 Oeste 0 -- -- 74
2019-04-24 06:00:00 10.3 3 Oeste 9 Oeste 0 -- -- 73
2019-04-24 05:00:00 11.1 0 Calma 5 Noroeste 0 -- -- 72
2019-04-24 04:00:00 11.5 0 Calma 6 Sur 0 -- -- 70
2019-04-24 03:00:00 12 0 Calma 10 Norte 0 -- -- 69
2019-04-24 02:00:00 12 2 Noroeste 8 Oeste 0 -- -- 66
2019-04-24 01:00:00 11.5 2 Oeste 5 Sudoeste 0 -- -- 60
2019-04-24 00:00:00 12.2 0 Calma 13 Oeste 0 -- -- 57
2019-04-23 23:00:00 13.4 3 Sudoeste 19 Sudoeste 0 -- -- 53
2019-04-23 22:00:00 13.8 3 Oeste 14 Oeste 0 -- -- 49
2019-04-23 21:00:00 14.6 3 Noroeste 19 Oeste 0 -- -- 47
2019-04-23 20:00:00 15.8 7 Sudoeste 27 Sudoeste 0 -- -- 46
2019-04-23 19:00:00 16.7 10 Sudoeste 31 Oeste 0 -- -- 43
2019-04-23 18:00:00 17 10 Sudoeste 33 Sur 0 -- -- 42
2019-04-23 17:00:00 17.2 13 Sudoeste 31 Sur 0 -- -- 44
2019-04-23 16:00:00 17.4 7 Sudoeste 22 Sur 0 -- -- 50
2019-04-23 15:00:00 16.4 9 Sur 21 Sur 0 -- -- 57
2019-04-23 14:00:00 16.4 9 Sur 24 Norte 0 -- -- 60
2019-04-23 13:00:00 13.8 5 Norte 24 Noroeste 0 -- -- 69
2019-04-23 12:00:00 11.5 10 Noroeste 37 Norte 0.6 -- -- 84
2019-04-23 11:00:00 11.8 11 Noroeste 36 Norte 3.4 -- -- 88
2019-04-23 10:00:00 14.5 2 Oeste 14 Noroeste 1.4 -- -- 91
2019-04-23 09:00:00 14.5 7 Sudoeste 31 Oeste 2.4 -- -- 84
2019-04-23 08:00:00 15.3 3 Sur 23 Sudoeste 0 -- -- 75
2019-04-23 07:00:00 15.6 7 Sur 17 Sur 0 -- -- 69
2019-04-23 06:00:00 15.9 6 Sudoeste 21 Sur 0 -- -- 69
2019-04-23 05:00:00 16.1 6 Sudoeste 23 Sudoeste 0 -- -- 66
2019-04-23 04:00:00 15.7 7 Sudoeste 18 Sudoeste 0 -- -- 73
2019-04-23 03:00:00 15.8 7 Sudoeste 22 Sudoeste 0 -- -- 70
2019-04-23 02:00:00 15.8 8 Sudoeste 19 Sudoeste 0 -- -- 66
2019-04-23 01:00:00 16.8 5 Sudoeste 25 Oeste 0 -- -- 60
2019-04-23 00:00:00 16.4 6 Oeste 29 Sur 0 -- -- 68
2019-04-22 23:00:00 17.7 8 Sudoeste 22 Oeste 0 -- -- 57
2019-04-22 22:00:00 17.4 3 Sudoeste 18 Sudoeste 0 -- -- 63
2019-04-22 21:00:00 18.6 5 Sudoeste 19 Oeste 0 -- -- 61
2019-04-22 20:00:00 20.1 5 Oeste 25 Sudoeste 0 -- -- 53
2019-04-22 19:00:00 21 8 Oeste 30 Sudoeste 0 -- -- 53
2019-04-22 18:00:00 21.8 11 Sudoeste 27 Sudoeste 0 -- -- 51
2019-04-22 17:00:00 21.6 8 Sudoeste 26 Sudoeste 0 -- -- 52
2019-04-22 16:00:00 21.8 5 Sudoeste 23 Sudoeste 0 -- -- 49
2019-04-22 15:00:00 23.7 6 Norte 28 Norte 0 -- -- 34
2019-04-22 14:00:00 22.5 9 Norte 29 Sudoeste 0 -- -- 39
2019-04-22 13:00:00 20.8 10 Sudoeste 22 Norte 0 -- -- 46
2019-04-22 12:00:00 19.1 4 Norte 20 Norte 0 -- -- 47
2019-04-22 11:00:00 16.8 6 Norte 28 Noroeste 0 -- -- 54
2019-04-22 10:00:00 15.7 10 Norte 36 Norte 0 -- -- 57
2019-04-22 09:00:00 15.2 13 Noroeste 32 Noroeste 0 -- -- 58
2019-04-22 08:00:00 14.5 5 Norte 27 Norte 0 -- -- 61
2019-04-22 07:00:00 14.1 8 Norte 28 Noroeste 0 -- -- 64
2019-04-22 06:00:00 13.9 8 Norte 32 Noroeste 0 -- -- 66
2019-04-22 05:00:00 13.9 13 Noroeste 36 Norte 0 -- -- 66
2019-04-22 04:00:00 14.1 16 Noroeste 33 Norte 0 -- -- 67
2019-04-22 03:00:00 14.3 15 Noroeste 37 Norte 0 -- -- 67
2019-04-22 02:00:00 14.4 13 Noroeste 28 Noroeste 0 -- -- 69
2019-04-22 01:00:00 14.7 9 Noroeste 26 Norte 0 -- -- 72
2019-04-22 00:00:00 14.3 8 Noroeste 24 Noroeste 0 -- -- 81
2019-04-21 23:00:00 14 3 Noroeste 18 Noroeste 0.2 -- -- 93
2019-04-21 22:00:00 14.6 3 Sudoeste 10 Oeste 0 -- -- 94
2019-04-21 21:00:00 14.8 0 Calma 5 Nordeste 0.2 -- -- 93
2019-04-21 20:00:00 15.1 3 Sudoeste 9 Sudoeste 1.2 -- -- 92
2019-04-21 19:00:00 15.3 2 Sudoeste 13 Sudoeste 1 -- -- 89
2019-04-21 18:00:00 15.8 4 Sudoeste 13 Noroeste 1.2 -- -- 86
2019-04-21 17:00:00 17.5 4 Oeste 23 Sudoeste 0 -- -- 70
2019-04-21 16:00:00 19 13 Sudoeste 22 Sudoeste 0 -- -- 56
2019-04-21 15:00:00 18.8 11 Sudoeste 23 Sur 0 -- -- 60
2019-04-21 14:00:00 18.9 9 Sudoeste 25 Sudoeste 0 -- -- 59
2019-04-21 13:00:00 18.5 6 Sudoeste 19 Sudeste 0 -- -- 54
2019-04-21 12:00:00 16.8 5 Sur 11 Nordeste 0 -- -- 63
2019-04-21 11:00:00 16.6 3 Norte 10 Noroeste 0 -- -- 63
2019-04-21 10:00:00 16.7 5 Oeste 24 Noroeste 0 -- -- 62
2019-04-21 09:00:00 16.1 8 Noroeste 26 Noroeste 0 -- -- 62
2019-04-21 08:00:00 15.2 10 Noroeste 26 Norte 0 -- -- 61
2019-04-21 07:00:00 15 6 Noroeste 17 Noroeste 0 -- -- 61
2019-04-21 06:00:00 14.8 5 Oeste 24 Norte 0 -- -- 61
2019-04-21 05:00:00 14 8 Noroeste 21 Noroeste 0 -- -- 66
2019-04-21 04:00:00 14.1 6 Noroeste 15 Noroeste 0 -- -- 67
2019-04-21 03:00:00 13.3 4 Noroeste 14 Noroeste 0 -- -- 76
2019-04-21 02:00:00 13.1 3 Noroeste 15 Noroeste 0 -- -- 83
2019-04-21 01:00:00 12.7 0 Calma 5 Nordeste 0 -- -- 83
2019-04-21 00:00:00 13.9 0 Calma 6 Sudeste 0 -- -- 84
2019-04-20 23:00:00 15 2 Sur 8 Este 0 -- -- 81
2019-04-20 22:00:00 15.3 3 Sur 12 Este 0 -- -- 82
2019-04-20 21:00:00 15.4 2 Sur 15 Sudeste 0 -- -- 84
2019-04-20 20:00:00 15.9 4 Sudeste 14 Sudeste 0 -- -- 79
2019-04-20 19:00:00 16.2 4 Sur 14 Sudeste 0 -- -- 75
2019-04-20 18:00:00 18 6 Sur 19 Sudeste 0 -- -- 66
2019-04-20 17:00:00 17.5 6 Sur 15 Sur 0 -- -- 59
2019-04-20 16:00:00 17.9 6 Sur 14 Sudoeste 0 -- -- 62
2019-04-20 15:00:00 16 5 Sur 13 Sudeste 0 -- -- 73
2019-04-20 14:00:00 17.4 9 Sudeste 20 Sudeste 0 -- -- 62
2019-04-20 13:00:00 18.9 6 Nordeste 22 Nordeste 0 -- -- 53
2019-04-20 12:00:00 16.9 5 Sudeste 14 Noroeste 0 -- -- 58
2019-04-20 11:00:00 17 10 Noroeste 28 Noroeste 0 -- -- 58
2019-04-20 10:00:00 14.9 11 Noroeste 27 Noroeste 0 -- -- 64
2019-04-20 09:00:00 14 2 Oeste 15 Noroeste 0 -- -- 70
2019-04-20 08:00:00 13.9 0 Calma 22 Noroeste 0 -- -- 68
2019-04-20 07:00:00 13.8 4 Norte 14 Nordeste 0 -- -- 67
2019-04-20 06:00:00 14.1 6 Oeste 15 Sudoeste 0 -- -- 65
2019-04-20 05:00:00 14.1 5 Noroeste 26 Norte 0 -- -- 65
2019-04-20 04:00:00 13.7 7 Noroeste 18 Norte 0 -- -- 68
2019-04-20 03:00:00 13.3 4 Noroeste 14 Noroeste 0 -- -- 70
2019-04-20 02:00:00 13.6 0 Calma 21 Noroeste 0 -- -- 69
2019-04-20 01:00:00 12.8 3 Noroeste 13 Noroeste 0 -- -- 75
2019-04-20 00:00:00 12.6 0 Calma 2 Oeste 0 -- -- 71
2019-04-19 23:00:00 13.5 0 Calma 3 Nordeste 0 -- -- 75
2019-04-19 22:00:00 14.4 0 Calma 3 Este 0 -- -- 69
2019-04-19 21:00:00 15.4 0 Calma 12 Sudeste 0 -- -- 74
2019-04-19 20:00:00 16.6 0 Calma 6 Sur 0 -- -- 60
2019-04-19 19:00:00 17.2 6 Sudeste 13 Sudeste 0 -- -- 59
2019-04-19 18:00:00 18.2 5 Sudoeste 18 Sur 0 -- -- 46
2019-04-19 17:00:00 18.2 7 Sudoeste 16 Sudoeste 0 -- -- 48
2019-04-19 16:00:00 18.2 8 Sur 18 Sur 0 -- -- 47
2019-04-19 15:00:00 18.7 9 Sur 18 Sur 0 -- -- 50
2019-04-19 14:00:00 17.8 8 Sudeste 15 Sudeste 0 -- -- 55
2019-04-19 13:00:00 18.2 6 Sudeste 17 Sudeste 0 -- -- 53
2019-04-19 12:00:00 19.2 8 Sur 18 Noroeste 0.2 -- -- 50
2019-04-19 11:00:00 19.1 6 Norte 23 Noroeste 0 -- -- 51
2019-04-19 10:00:00 17.5 9 Norte 29 Noroeste 0 -- -- 53
2019-04-19 09:00:00 15.6 11 Norte 27 Norte 0 -- -- 59
2019-04-19 08:00:00 13.9 12 Noroeste 25 Noroeste 0 -- -- 64
2019-04-19 07:00:00 13.4 8 Noroeste 21 Norte 0 -- -- 65
2019-04-19 06:00:00 13.5 13 Noroeste 26 Noroeste 0 -- -- 64
2019-04-19 05:00:00 13.1 9 Noroeste 23 Noroeste 0 -- -- 67
2019-04-19 04:00:00 13.3 9 Noroeste 24 Noroeste 0 -- -- 67
2019-04-19 03:00:00 12.6 6 Noroeste 16 Norte 0 -- -- 73
2019-04-19 02:00:00 12.1 4 Noroeste 12 Noroeste 0 -- -- 78
2019-04-19 01:00:00 12.1 0 Calma 14 Nordeste 0 -- -- 78
2019-04-19 00:00:00 12.7 2 Sur 21 Noroeste 0 -- -- 75
2019-04-18 23:00:00 13.5 12 Noroeste 30 Norte 0 -- -- 69
2019-04-18 22:00:00 13 13 Norte 26 Norte 0.2 -- -- 76
2019-04-18 21:00:00 13.7 7 Norte 24 Nordeste 0.6 -- -- 81
2019-04-18 20:00:00 15.5 0 Calma 8 Nordeste 0 -- -- 87
2019-04-18 19:00:00 15.8 4 Nordeste 7 Nordeste 0.2 -- -- 82
2019-04-18 18:00:00 15.1 2 Noroeste 15 Sudeste 6 -- -- 83
2019-04-18 17:00:00 17.1 5 Nordeste 26 Sudoeste 0 -- -- 57
2019-04-18 16:00:00 17.4 12 Sudoeste 30 Sudoeste 0.2 -- -- 70
2019-04-18 15:00:00 17.6 13 Sudoeste 30 Sudoeste 0 -- -- 61
2019-04-18 14:00:00 18 9 Sur 21 Oeste 0 -- -- 62
2019-04-18 13:00:00 16.1 3 Sur 8 Nordeste 1.2 -- -- 81
2019-04-18 12:00:00 15.7 5 Oeste 21 Sudoeste 0.6 -- -- 76
2019-04-18 11:00:00 16.2 3 Sudoeste 9 Sudoeste 0 -- -- 81
2019-04-18 10:00:00 14.7 2 Este 9 Este 0 -- -- 91
2019-04-18 09:00:00 13.2 3 Oeste 6 Oeste 0.2 -- -- 94
2019-04-18 08:00:00 13.1 5 Oeste 14 Sudoeste 2.8 -- -- 94
2019-04-18 07:00:00 13.2 3 Oeste 6 Oeste 0.6 -- -- 93
2019-04-18 06:00:00 13.3 3 Noroeste 10 Oeste 0.6 -- -- 91
2019-04-18 05:00:00 14.7 2 Noroeste 9 Oeste 0.4 -- -- 90
2019-04-18 04:00:00 15.5 0 Calma 10 Sudoeste 0 -- -- 88
2019-04-18 03:00:00 15.5 4 Sudoeste 11 Oeste 0 -- -- 85
2019-04-18 02:00:00 15.6 0 Calma 13 Nordeste 0 -- -- 86
2019-04-18 01:00:00 16.2 5 Nordeste 14 Nordeste 0 -- -- 82
2019-04-18 00:00:00 16.2 2 Sur 5 Sudeste 0 -- -- 81
2019-04-17 23:00:00 16.2 2 Noroeste 12 Sudoeste 0 -- -- 81
2019-04-17 22:00:00 16.4 4 Sudoeste 10 Sudoeste 0 -- -- 79
2019-04-17 21:00:00 16.6 3 Sudoeste 9 Sudoeste 0 -- -- 77
2019-04-17 20:00:00 16.7 4 Sur 19 Sudoeste 0 -- -- 73
2019-04-17 19:00:00 17 6 Sudoeste 22 Oeste 0 -- -- 71
2019-04-17 18:00:00 17.3 8 Sudoeste 24 Sudoeste 0 -- -- 70
2019-04-17 17:00:00 17.5 9 Sudoeste 24 Oeste 0 -- -- 70
2019-04-17 16:00:00 17.3 12 Sudoeste 21 Sudoeste 0 -- -- 73
2019-04-17 15:00:00 17.7 7 Sudoeste 17 Sudoeste 0 -- -- 74
2019-04-17 14:00:00 17.3 6 Sur 17 Oeste 0 -- -- 78
2019-04-17 13:00:00 17.3 7 Sur 19 Sur 0 -- -- 78
2019-04-17 12:00:00 17.9 8 Sur 26 Oeste 0 -- -- 73
2019-04-17 11:00:00 17.2 8 Sudoeste 23 Oeste 0 -- -- 73
2019-04-17 10:00:00 17.2 8 Sudoeste 18 Oeste 0 -- -- 73
2019-04-17 09:00:00 16.3 5 Oeste 15 Oeste 0 -- -- 76
2019-04-17 08:00:00 15 3 Oeste 8 Sudoeste 0 -- -- 83
2019-04-17 07:00:00 14.8 2 Oeste 12 Oeste 0 -- -- 83
2019-04-17 06:00:00 14.5 2 Oeste 6 Noroeste 0 -- -- 85
2019-04-17 05:00:00 14.4 0 Calma 6 Norte 0 -- -- 85
2019-04-17 04:00:00 14.7 3 Norte 8 Noroeste 0 -- -- 88
2019-04-17 03:00:00 15 0 Calma 7 Nordeste 0 -- -- 89
2019-04-17 02:00:00 15.3 0 Calma 8 Este 0 -- -- 88
2019-04-17 01:00:00 15.4 0 Calma 8 Nordeste 0 -- -- 85
2019-04-17 00:00:00 15.6 3 Nordeste 10 Nordeste 0 -- -- 84
2019-04-16 23:00:00 15.4 0 Calma 5 Noroeste 0 -- -- 78
2019-04-16 22:00:00 15.4 0 Calma 6 Nordeste 0 -- -- 74
2019-04-16 21:00:00 16.7 0 Calma 7 Sur 0 -- -- 70
2019-04-16 20:00:00 18.1 4 Sur 11 Sur 0 -- -- 68
2019-04-16 19:00:00 18.3 5 Sur 14 Sudeste 0 -- -- 67
2019-04-16 18:00:00 19.6 6 Sudeste 14 Sudeste 0 -- -- 63
2019-04-16 17:00:00 19.3 5 Sudeste 17 Sudeste 0 -- -- 67
2019-04-16 16:00:00 18.7 9 Sudeste 17 Este 0 -- -- 71
2019-04-16 15:00:00 20.3 9 Este 17 Este 0 -- -- 59
2019-04-16 14:00:00 20.3 10 Sudeste 17 Sudeste 0 -- -- 50
2019-04-16 13:00:00 21.1 8 Sudeste 16 Este 0 -- -- 49
2019-04-16 12:00:00 21.4 5 Sur 13 Sudeste 0 -- -- 43
2019-04-16 11:00:00 20.9 6 Sudeste 14 Sudeste 0 -- -- 46
2019-04-16 10:00:00 19.9 8 Sudeste 33 Noroeste 0 -- -- 53
2019-04-16 09:00:00 18.9 12 Noroeste 28 Nordeste 0 -- -- 53
2019-04-16 08:00:00 16.6 14 Noroeste 34 Norte 0 -- -- 64
2019-04-16 07:00:00 16.7 17 Noroeste 38 Noroeste 0 -- -- 62
2019-04-16 06:00:00 16.8 16 Noroeste 36 Norte 0 -- -- 60
2019-04-16 05:00:00 16.6 11 Noroeste 28 Noroeste 0 -- -- 61
2019-04-16 04:00:00 15.8 5 Oeste 12 Noroeste 0 -- -- 69
2019-04-16 03:00:00 15.7 0 Calma 6 Norte 0 -- -- 71
2019-04-16 02:00:00 16.7 2 Nordeste 23 Norte 0 -- -- 66
2019-04-16 01:00:00 18.6 14 Noroeste 31 Noroeste 0 -- -- 54
2019-04-16 00:00:00 19.2 5 Norte 28 Norte 0 -- -- 49
2019-04-15 23:00:00 20.3 11 Noroeste 23 Norte 0 -- -- 43
2019-04-15 22:00:00 19.9 4 Noroeste 18 Sudoeste 0 -- -- 39
2019-04-15 21:00:00 20 7 Oeste 24 Sudoeste 0 -- -- 50
2019-04-15 20:00:00 22.3 7 Oeste 28 Sudoeste 0 -- -- 41
2019-04-15 19:00:00 23.5 11 Sudoeste 31 Sur 0 -- -- 40
2019-04-15 18:00:00 23.4 12 Sudoeste 30 Oeste 0 -- -- 41
2019-04-15 17:00:00 23.9 15 Sudoeste 31 Sur 0 -- -- 33
2019-04-15 16:00:00 24.7 14 Sudoeste 28 Sudoeste 0 -- -- 25
2019-04-15 15:00:00 24.4 12 Sudoeste 26 Sudoeste 0 -- -- 28
2019-04-15 14:00:00 23.6 10 Sudoeste 19 Sudoeste 0 -- -- 30
2019-04-15 13:00:00 23.4 7 Sudoeste 15 Sudoeste 0 -- -- 31
2019-04-15 12:00:00 22.4 6 Sudeste 11 Sur 0 -- -- 38
2019-04-15 11:00:00 19.5 0 Calma 5 Este 0 -- -- 51
2019-04-15 10:00:00 18.9 3 Sudeste 6 Sur 0 -- -- 56
2019-04-15 09:00:00 16.6 0 Calma 3 Sudoeste 0 -- -- 58
2019-04-15 08:00:00 15.7 0 Calma 6 Sudoeste 0 -- -- 53
2019-04-15 07:00:00 14.7 0 Calma 13 Nordeste 0 -- -- 58
2019-04-15 06:00:00 14.4 2 Nordeste 6 Nordeste 0 -- -- 65
2019-04-15 05:00:00 15.1 0 Calma 8 Nordeste 0 -- -- 71
2019-04-15 04:00:00 15.9 0 Calma 4 Nordeste 0 -- -- 65
2019-04-15 03:00:00 16.2 0 Calma 4 Nordeste 0 -- -- 68
2019-04-15 02:00:00 16.8 0 Calma 13 Nordeste 0 -- -- 62
2019-04-15 01:00:00 17.2 4 Nordeste 8 Nordeste 0 -- -- 65
2019-04-15 00:00:00 17.8 3 Oeste 6 Sudoeste 0 -- -- 67
2019-04-14 23:00:00 18.1 0 Calma 8 Nordeste 0 -- -- 56
2019-04-14 22:00:00 17.8 3 Nordeste 7 Nordeste 0 -- -- 65
2019-04-14 21:00:00 18.8 0 Calma 10 Nordeste 0 -- -- 63
2019-04-14 20:00:00 20.8 4 Nordeste 13 Sudoeste 0 -- -- 57
2019-04-14 19:00:00 22.7 8 Sudoeste 25 Sudoeste 0 -- -- 34
2019-04-14 18:00:00 22.8 8 Sudoeste 31 Sudoeste 0 -- -- 39
2019-04-14 17:00:00 22.8 13 Sudoeste 25 Sudoeste 0 -- -- 35
2019-04-14 16:00:00 22.8 15 Sudoeste 24 Sudoeste 0 -- -- 33
2019-04-14 15:00:00 23.3 10 Sudoeste 21 Sudoeste 0 -- -- 38
2019-04-14 14:00:00 22 10 Sur 19 Sur 0 -- -- 41
2019-04-14 13:00:00 21.5 9 Sur 17 Sur 0 -- -- 42
2019-04-14 12:00:00 19.7 6 Sur 15 Sur 0 -- -- 57
2019-04-14 11:00:00 18.9 6 Sudoeste 14 Oeste 0 -- -- 60
2019-04-14 10:00:00 18.1 6 Sudoeste 14 Sur 0 -- -- 65
2019-04-14 09:00:00 19.8 5 Sudeste 29 Noroeste 0 -- -- 52
2019-04-14 08:00:00 19.5 8 Noroeste 32 Noroeste 0 -- -- 35
2019-04-14 07:00:00 19.4 15 Noroeste 35 Noroeste 0 -- -- 36
2019-04-14 06:00:00 19.3 15 Noroeste 35 Noroeste 0 -- -- 36
2019-04-14 05:00:00 19.1 12 Norte 31 Norte 0 -- -- 37
2019-04-14 04:00:00 19.1 13 Noroeste 30 Noroeste 0 -- -- 36
2019-04-14 03:00:00 19.5 13 Noroeste 26 Noroeste 0 -- -- 36
2019-04-14 02:00:00 19.4 12 Noroeste 24 Norte 0 -- -- 36
2019-04-14 01:00:00 19.4 8 Noroeste 23 Norte 0 -- -- 35
2019-04-14 00:00:00 19.5 7 Norte 15 Norte 0 -- -- 33
2019-04-13 23:00:00 18.3 2 Noroeste 12 Noroeste 0 -- -- 40
2019-04-13 22:00:00 19.1 3 Noroeste 7 Noroeste 0 -- -- 35
2019-04-13 21:00:00 19.8 0 Calma 17 Sudoeste 0 -- -- 40
2019-04-13 20:00:00 21.7 12 Sudoeste 27 Sudoeste 0 -- -- 37
2019-04-13 19:00:00 22.6 12 Sudoeste 30 Oeste 0 -- -- 31
2019-04-13 18:00:00 23.5 15 Sudoeste 33 Oeste 0 -- -- 26
2019-04-13 17:00:00 22.9 14 Sudoeste 34 Sudoeste 0 -- -- 28
2019-04-13 16:00:00 22.8 13 Sudoeste 31 Sudoeste 0 -- -- 28
2019-04-13 15:00:00 22.7 13 Sudoeste 26 Oeste 0 -- -- 27
2019-04-13 14:00:00 23.1 12 Sudoeste 25 Sudoeste 0 -- -- 27
2019-04-13 13:00:00 24.1 6 Norte 22 Oeste 0 -- -- 25
2019-04-13 12:00:00 22.9 5 Sur 22 Sur 0 -- -- 26
2019-04-13 11:00:00 22.7 7 Norte 19 Noroeste 0 -- -- 28
2019-04-13 10:00:00 21.2 8 Noroeste 18 Noroeste 0 -- -- 30
2019-04-13 09:00:00 19.2 9 Noroeste 21 Noroeste 0 -- -- 34
2019-04-13 08:00:00 17.3 9 Noroeste 22 Noroeste 0 -- -- 36
2019-04-13 07:00:00 17.2 11 Noroeste 23 Nordeste 0 -- -- 37
2019-04-13 06:00:00 17.1 12 Noroeste 30 Noroeste 0 -- -- 38
2019-04-13 05:00:00 17 11 Noroeste 26 Noroeste 0 -- -- 39
2019-04-13 04:00:00 17.2 11 Noroeste 26 Noroeste 0 -- -- 38
2019-04-13 03:00:00 17.4 11 Noroeste 26 Noroeste 0 -- -- 38
2019-04-13 02:00:00 17.5 10 Noroeste 24 Noroeste 0 -- -- 36
2019-04-13 01:00:00 18.1 9 Noroeste 19 Noroeste 0 -- -- 36
2019-04-13 00:00:00 17.2 7 Noroeste 14 Norte 0 -- -- 36
2019-04-12 23:00:00 16.1 0 Calma 4 Noroeste 0 -- -- 38
2019-04-12 22:00:00 17.3 2 Noroeste 10 Oeste 0 -- -- 37
2019-04-12 21:00:00 18.8 7 Oeste 12 Oeste 0 -- -- 42
2019-04-12 20:00:00 19.9 6 Oeste 24 Sudoeste 0 -- -- 40
2019-04-12 19:00:00 20.6 12 Sudoeste 25 Sudoeste 0 -- -- 31
2019-04-12 18:00:00 21.8 11 Sudoeste 25 Sudoeste 0 -- -- 24
2019-04-12 17:00:00 21.4 10 Sudoeste 26 Oeste 0 -- -- 36
2019-04-12 16:00:00 21.5 12 Sudoeste 25 Sudoeste 0 -- -- 28
2019-04-12 15:00:00 20.9 13 Sudoeste 30 Sudoeste 0 -- -- 31
2019-04-12 14:00:00 21.1 11 Sudoeste 24 Sudoeste 0 -- -- 32
2019-04-12 13:00:00 21 9 Sur 17 Oeste 0 -- -- 30
2019-04-12 12:00:00 22 4 Este 13 Norte 0 -- -- 22
2019-04-12 11:00:00 21.1 4 Noroeste 21 Noroeste 0 -- -- 34
2019-04-12 10:00:00 19.2 10 Noroeste 27 Noroeste 0 -- -- 41
2019-04-12 09:00:00 17.7 10 Noroeste 27 Noroeste 0 -- -- 43
2019-04-12 08:00:00 15.9 12 Noroeste 26 Noroeste 0 -- -- 45
2019-04-12 07:00:00 15.7 13 Noroeste 29 Noroeste 0 -- -- 48
2019-04-12 06:00:00 15.7 13 Noroeste 29 Noroeste 0 -- -- 50
2019-04-12 05:00:00 15.7 11 Noroeste 24 Norte 0 -- -- 49
2019-04-12 04:00:00 15.8 10 Noroeste 23 Noroeste 0 -- -- 48
2019-04-12 03:00:00 16 7 Norte 22 Noroeste 0 -- -- 46
2019-04-12 02:00:00 16.4 9 Noroeste 20 Noroeste 0 -- -- 44
2019-04-12 01:00:00 16.6 7 Noroeste 15 Noroeste 0 -- -- 44
2019-04-12 00:00:00 17.2 5 Norte 16 Norte 0 -- -- 40
2019-04-11 23:00:00 17.8 6 Noroeste 21 Noroeste 0 -- -- 38
2019-04-11 22:00:00 18.5 6 Norte 27 Norte 0 -- -- 34
2019-04-11 21:00:00 19.2 8 Norte 21 Norte 0 -- -- 32
2019-04-11 20:00:00 20 4 Norte 23 Noroeste 0 -- -- 29
2019-04-11 19:00:00 21.4 5 Norte 30 Nordeste 0 -- -- 28
2019-04-11 18:00:00 22.8 10 Nordeste 28 Este 0 -- -- 29
2019-04-11 17:00:00 23.2 8 Nordeste 29 Nordeste 0 -- -- 27
2019-04-11 16:00:00 23.1 10 Norte 31 Nordeste 0 -- -- 26
2019-04-11 15:00:00 22.4 8 Nordeste 26 Nordeste 0 -- -- 30
2019-04-11 14:00:00 21.6 7 Norte 31 Noroeste 0 -- -- 30
2019-04-11 13:00:00 20.1 5 Sudoeste 20 Sudoeste 0 -- -- 38
2019-04-11 12:00:00 19.5 9 Norte 23 Noroeste 0 -- -- 41
2019-04-11 11:00:00 17.9 6 Norte 23 Noroeste 0 -- -- 44
2019-04-11 10:00:00 17.2 6 Norte 28 Noroeste 0 -- -- 45
2019-04-11 09:00:00 15.8 13 Norte 27 Norte 0 -- -- 49
2019-04-11 08:00:00 13.8 12 Norte 27 Norte 0 -- -- 55
2019-04-11 07:00:00 14.2 13 Norte 28 Norte 0 -- -- 53
2019-04-11 06:00:00 14.4 10 Noroeste 25 Norte 0 -- -- 52
2019-04-11 05:00:00 14.5 10 Noroeste 28 Norte 0 -- -- 52
2019-04-11 04:00:00 14.5 7 Noroeste 18 Noroeste 0 -- -- 51
2019-04-11 03:00:00 15 6 Norte 17 Noroeste 0 -- -- 49
2019-04-11 02:00:00 15.2 5 Noroeste 16 Norte 0 -- -- 48
2019-04-11 01:00:00 15.9 5 Noroeste 25 Noroeste 0 -- -- 49
2019-04-11 00:00:00 16.1 4 Noroeste 17 Norte 0 -- -- 50
2019-04-10 23:00:00 16.7 5 Noroeste 23 Noroeste 0 -- -- 47
2019-04-10 22:00:00 16.7 2 Oeste 7 Oeste 0 -- -- 43
2019-04-10 21:00:00 17.7 4 Oeste 19 Nordeste 0 -- -- 39
2019-04-10 20:00:00 18.7 5 Norte 18 Nordeste 0 -- -- 37
2019-04-10 19:00:00 19.4 5 Oeste 31 Nordeste 0 -- -- 34
2019-04-10 18:00:00 20.2 10 Norte 27 Nordeste 0 -- -- 32
2019-04-10 17:00:00 20.3 11 Norte 35 Nordeste 0 -- -- 31
2019-04-10 16:00:00 20.3 10 Norte 39 Nordeste 0 -- -- 34
2019-04-10 15:00:00 20 9 Norte 29 Nordeste 0 -- -- 35
2019-04-10 14:00:00 19 9 Nordeste 30 Nordeste 0 -- -- 38
2019-04-10 13:00:00 18 9 Nordeste 32 Nordeste 0 -- -- 40
2019-04-10 12:00:00 17.2 10 Norte 29 Nordeste 0 -- -- 45
2019-04-10 11:00:00 15.8 9 Nordeste 25 Este 0 -- -- 50
2019-04-10 10:00:00 15 8 Norte 27 Norte 0 -- -- 53
2019-04-10 09:00:00 13.6 5 Norte 15 Nordeste 0 -- -- 57
2019-04-10 08:00:00 12.2 3 Noroeste 19 Noroeste 0 -- -- 63
2019-04-10 07:00:00 12.7 5 Norte 23 Norte 0 -- -- 62
2019-04-10 06:00:00 13.4 7 Noroeste 21 Norte 0 -- -- 61
2019-04-10 05:00:00 14 4 Nordeste 18 Oeste 0 -- -- 59
2019-04-10 04:00:00 13.9 5 Norte 24 Norte 0 -- -- 61
2019-04-10 03:00:00 14.1 4 Noroeste 12 Noroeste 0 -- -- 60
2019-04-10 02:00:00 13.9 3 Noroeste 13 Noroeste 0 -- -- 59
2019-04-10 01:00:00 14.5 3 Noroeste 23 Oeste 0 -- -- 55
2019-04-10 00:00:00 15.2 4 Oeste 16 Oeste 0 -- -- 50
2019-04-09 23:00:00 15.5 3 Sudoeste 19 Noroeste 0 -- -- 49
2019-04-09 22:00:00 16.1 3 Oeste 15 Oeste 0 -- -- 47
2019-04-09 21:00:00 17 2 Oeste 17 Norte 0 -- -- 48
2019-04-09 20:00:00 18.9 4 Noroeste 17 Norte 0 -- -- 35
2019-04-09 19:00:00 20.7 5 Nordeste 21 Norte 0 -- -- 32
2019-04-09 18:00:00 20.7 4 Noroeste 27 Sudoeste 0 -- -- 32
2019-04-09 17:00:00 19.6 6 Oeste 24 Sudoeste 0 -- -- 43
2019-04-09 16:00:00 20.4 7 Sudoeste 23 Noroeste 0 -- -- 49
2019-04-09 15:00:00 19.2 8 Norte 24 Norte 0 -- -- 40
2019-04-09 14:00:00 17.5 9 Sudoeste 21 Oeste 0 -- -- 55
2019-04-09 13:00:00 17.3 9 Sudoeste 19 Sur 0 -- -- 52
2019-04-09 12:00:00 17.2 10 Sudoeste 20 Sudoeste 0 -- -- 45
2019-04-09 11:00:00 15.8 5 Noroeste 15 Noroeste 0 -- -- 53
2019-04-09 10:00:00 15.4 4 Sudeste 10 Sudeste 0 -- -- 52
2019-04-09 09:00:00 13.8 3 Norte 12 Norte 0 -- -- 60
2019-04-09 08:00:00 11.6 4 Norte 16 Nordeste 0 -- -- 67
2019-04-09 07:00:00 11.1 0 Calma 9 Noroeste 0 -- -- 69
2019-04-09 06:00:00 12.6 4 Noroeste 21 Norte 0 -- -- 62
2019-04-09 05:00:00 13.3 7 Norte 22 Oeste 0 -- -- 61
2019-04-09 04:00:00 13.9 7 Norte 23 Norte 0 -- -- 60
2019-04-09 03:00:00 14.6 9 Noroeste 26 Noroeste 0 -- -- 59
2019-04-09 02:00:00 14.6 6 Norte 14 Norte 0 -- -- 60
2019-04-09 01:00:00 15.5 6 Noroeste 14 Noroeste 0 -- -- 60
2019-04-09 00:00:00 15.7 4 Noroeste 12 Sudoeste 0 -- -- 65
2019-04-08 23:00:00 16.2 5 Oeste 14 Oeste 0 -- -- 72
2019-04-08 22:00:00 16.3 12 Sudoeste 17 Sudoeste 0 -- -- 72
2019-04-08 21:00:00 17.4 6 Sudoeste 23 Sudoeste 0 -- -- 62
2019-04-08 20:00:00 18.7 7 Sudoeste 20 Sudoeste 0 -- -- 56
2019-04-08 19:00:00 19.4 8 Sudoeste 23 Sudoeste 0 -- -- 54
2019-04-08 18:00:00 21.1 6 Oeste 26 Sudoeste 0 -- -- 48
2019-04-08 17:00:00 21.2 8 Sudoeste 32 Oeste 0 -- -- 51
2019-04-08 16:00:00 20.5 12 Sudoeste 35 Sur 0 -- -- 53
2019-04-08 15:00:00 19.8 13 Sudoeste 28 Sudoeste 0 -- -- 58
2019-04-08 14:00:00 18.1 10 Sudoeste 23 Sudoeste 0 -- -- 71
2019-04-08 13:00:00 18 5 Sudoeste 26 Sudoeste 0 -- -- 66
2019-04-08 12:00:00 18.6 9 Sudoeste 21 Sudoeste 0 -- -- 67
2019-04-08 11:00:00 17.7 5 Sur 15 Sudoeste 0 -- -- 69
2019-04-08 10:00:00 15.5 6 Sudoeste 10 Sudoeste 0 -- -- 78
2019-04-08 09:00:00 12.7 0 Calma 7 Sudoeste 0 -- -- 92
2019-04-08 08:00:00 12.5 0 Calma 4 Sudoeste 0 -- -- 92
2019-04-08 07:00:00 12.7 0 Calma 4 Nordeste 0 -- -- 91
2019-04-08 06:00:00 12.7 0 Calma 3 Oeste 0 -- -- 91
2019-04-08 05:00:00 12.7 0 Calma 3 Sudoeste 0 -- -- 90
2019-04-08 04:00:00 12.8 0 Calma 3 Noroeste 0 -- -- 90
2019-04-08 03:00:00 13 0 Calma 6 Sudoeste 0 -- -- 87
2019-04-08 02:00:00 13.8 2 Oeste 6 Oeste 0 -- -- 84
2019-04-08 01:00:00 14 0 Calma 9 Oeste 0 -- -- 83
2019-04-08 00:00:00 14.2 3 Este 9 Nordeste 0 -- -- 83
2019-04-07 23:00:00 14.4 0 Calma 5 Oeste 0 -- -- 83
2019-04-07 22:00:00 14.7 0 Calma 8 Oeste 0 -- -- 82
2019-04-07 21:00:00 15.2 2 Oeste 21 Sudoeste 0 -- -- 80
2019-04-07 20:00:00 15.7 6 Sudoeste 21 Oeste 0 -- -- 76
2019-04-07 19:00:00 16.3 7 Sudoeste 22 Oeste 0 -- -- 69
2019-04-07 18:00:00 17.4 8 Sudoeste 23 Sudoeste 0 -- -- 59
2019-04-07 17:00:00 17.6 7 Oeste 22 Oeste 0 -- -- 56
2019-04-07 16:00:00 17.6 4 Noroeste 15 Sudeste 0 -- -- 56
2019-04-07 15:00:00 17.2 5 Sur 18 Sudeste 0 -- -- 55
2019-04-07 14:00:00 16.3 6 Sur 15 Noroeste 0 -- -- 55
2019-04-07 13:00:00 17.1 5 Norte 15 Noroeste 0 -- -- 57
2019-04-07 12:00:00 15.4 4 Norte 21 Nordeste 0 -- -- 61
2019-04-07 11:00:00 14.9 4 Norte 17 Nordeste 0 -- -- 63
2019-04-07 10:00:00 13.8 2 Norte 16 Norte 0 -- -- 64
2019-04-07 09:00:00 13 5 Norte 16 Norte 0 -- -- 62
2019-04-07 08:00:00 11.2 5 Norte 15 Norte 0 -- -- 68
2019-04-07 07:00:00 11.1 5 Norte 16 Noroeste 0 -- -- 73
2019-04-07 06:00:00 10.9 4 Norte 14 Norte 0 -- -- 75
2019-04-07 05:00:00 10.6 0 Calma 6 Oeste 0 -- -- 78
2019-04-07 04:00:00 11.7 0 Calma 6 Norte 0.2 -- -- 76
2019-04-07 03:00:00 11.4 3 Noroeste 8 Norte 0 -- -- 80
2019-04-07 02:00:00 11.9 0 Calma 11 Sudoeste 0 -- -- 77
2019-04-07 01:00:00 12.8 3 Oeste 12 Noroeste 0 -- -- 64
2019-04-07 00:00:00 12.6 2 Oeste 10 Sudoeste 0 -- -- 64
2019-04-06 23:00:00 12.9 2 Noroeste 11 Noroeste 0 -- -- 63
2019-04-06 22:00:00 12.7 0 Calma 9 Nordeste 0 -- -- 71
2019-04-06 21:00:00 12.7 0 Calma 4 Sudoeste 0 -- -- 71
2019-04-06 20:00:00 13.8 3 Norte 9 Sudoeste 0 -- -- 68
2019-04-06 19:00:00 14.8 3 Noroeste 14 Oeste 0 -- -- 60
2019-04-06 18:00:00 15.2 4 Sur 17 Sudoeste 1 -- -- 67
2019-04-06 17:00:00 15.8 4 Norte 23 Sudoeste 0 -- -- 65
2019-04-06 16:00:00 15.2 6 Sur 21 Noroeste 1 -- -- 70
2019-04-06 15:00:00 14.3 7 Sudoeste 22 Sudoeste 0 -- -- 67
2019-04-06 14:00:00 13.1 2 Oeste 32 Sudoeste 1 -- -- 75
2019-04-06 13:00:00 15.4 9 Sudoeste 18 Oeste 0 -- -- 54
2019-04-06 12:00:00 14.4 3 Sudoeste 15 Oeste 0 -- -- 54
2019-04-06 11:00:00 14 7 Sudoeste 15 Sudoeste 0 -- -- 54
2019-04-06 10:00:00 13 2 Sudoeste 8 Nordeste 0 -- -- 53
2019-04-06 09:00:00 11 3 Nordeste 8 Nordeste 0 -- -- 63
2019-04-06 08:00:00 9.7 0 Calma 8 Noroeste 0 -- -- 63
2019-04-06 07:00:00 9.3 0 Calma 4 Oeste 0 -- -- 62
2019-04-06 06:00:00 9.9 0 Calma 6 Noroeste 0 -- -- 62
2019-04-06 05:00:00 9.9 2 Noroeste 10 Noroeste 0 -- -- 61
2019-04-06 04:00:00 11.1 4 Oeste 23 Oeste 0 -- -- 55
2019-04-06 03:00:00 11.6 6 Oeste 24 Noroeste 0 -- -- 50
2019-04-06 02:00:00 11.1 0 Calma 16 Noroeste 0 -- -- 56
2019-04-06 01:00:00 11.6 0 Calma 23 Norte 0 -- -- 57
2019-04-06 00:00:00 12.1 2 Oeste 16 Oeste 0 -- -- 54
2019-04-05 23:00:00 12.2 5 Noroeste 15 Noroeste 0 -- -- 53
2019-04-05 22:00:00 12.2 6 Noroeste 19 Norte 0 -- -- 52
2019-04-05 21:00:00 13.2 6 Norte 20 Noroeste 0 -- -- 45
2019-04-05 20:00:00 14.5 4 Nordeste 39 Norte 0 -- -- 37
2019-04-05 19:00:00 16.1 6 Noroeste 31 Oeste 0 -- -- 36
2019-04-05 18:00:00 17.4 6 Noroeste 21 Oeste 0 -- -- 28
2019-04-05 17:00:00 16.3 5 Sudoeste 25 Nordeste 0 -- -- 56
2019-04-05 16:00:00 16.1 9 Este 31 Nordeste 0.2 -- -- 53
2019-04-05 15:00:00 13.4 2 Sudoeste 6 Sudoeste 0 -- -- 85
2019-04-05 14:00:00 12.1 3 Sur 18 Oeste 5 -- -- 91
2019-04-05 13:00:00 12.4 7 Sudoeste 24 Sudoeste 0.2 -- -- 87
2019-04-05 12:00:00 12.9 8 Sudoeste 21 Sur 0.2 -- -- 84
2019-04-05 11:00:00 12 3 Sur 22 Noroeste 2.4 -- -- 92
2019-04-05 10:00:00 12.3 10 Sudoeste 26 Sudoeste 2.4 -- -- 92
2019-04-05 09:00:00 12.2 6 Sudoeste 19 Sudoeste 0.6 -- -- 87
2019-04-05 08:00:00 12.7 5 Sudoeste 18 Sur 0 -- -- 72
2019-04-05 07:00:00 12.9 6 Sudoeste 16 Sudoeste 0 -- -- 64
2019-04-05 06:00:00 12.5 3 Noroeste 12 Oeste 0 -- -- 57
2019-04-05 05:00:00 11.9 2 Sudoeste 6 Nordeste 0 -- -- 53
2019-04-05 04:00:00 11.7 3 Sudoeste 8 Nordeste 0 -- -- 53
2019-04-05 03:00:00 12.2 0 Calma 6 Oeste 0 -- -- 58
2019-04-05 02:00:00 11.6 0 Calma 12 Oeste 0 -- -- 62
2019-04-05 01:00:00 12.2 5 Oeste 10 Oeste 0 -- -- 55
2019-04-05 00:00:00 12.7 3 Oeste 12 Sudoeste 0 -- -- 53
2019-04-04 23:00:00 13.7 6 Oeste 17 Sudoeste 0 -- -- 57
2019-04-04 22:00:00 14.3 5 Oeste 23 Sudoeste 0 -- -- 54
2019-04-04 21:00:00 15.1 8 Sudoeste 31 Oeste 0 -- -- 55
2019-04-04 20:00:00 16 9 Sudoeste 37 Sudoeste 0 -- -- 54
2019-04-04 19:00:00 17.1 14 Sudoeste 35 Sudoeste 0 -- -- 47
2019-04-04 18:00:00 18.7 13 Sudoeste 41 Noroeste 0 -- -- 42
2019-04-04 17:00:00 18.8 17 Sudoeste 36 Sudoeste 0 -- -- 48
2019-04-04 16:00:00 19.3 18 Sudoeste 35 Sudoeste 0 -- -- 42
2019-04-04 15:00:00 19.8 12 Sudoeste 32 Sudoeste 0 -- -- 31
2019-04-04 14:00:00 19.4 9 Sudoeste 21 Oeste 0 -- -- 36
2019-04-04 13:00:00 17.9 12 Sudoeste 23 Sudoeste 0 -- -- 42
2019-04-04 12:00:00 18.8 6 Norte 25 Nordeste 0 -- -- 26
2019-04-04 11:00:00 17.9 9 Norte 23 Norte 0 -- -- 26
2019-04-04 10:00:00 16.3 9 Norte 28 Norte 0 -- -- 32
2019-04-04 09:00:00 14 12 Noroeste 28 Noroeste 0 -- -- 36
2019-04-04 08:00:00 12.9 12 Noroeste 28 Noroeste 0 -- -- 41
2019-04-04 07:00:00 13.2 13 Norte 31 Norte 0 -- -- 43
2019-04-04 06:00:00 13.9 13 Noroeste 35 Norte 0 -- -- 45
2019-04-04 05:00:00 14.6 10 Noroeste 33 Norte 0 -- -- 48
2019-04-04 04:00:00 15.2 13 Noroeste 32 Norte 0 -- -- 47
2019-04-04 03:00:00 15.6 14 Norte 37 Noroeste 0 -- -- 46
2019-04-04 02:00:00 16 12 Noroeste 35 Norte 0 -- -- 44
2019-04-04 01:00:00 16.7 15 Noroeste 36 Norte 0 -- -- 40
2019-04-04 00:00:00 17.1 14 Norte 36 Norte 0 -- -- 39
2019-04-03 23:00:00 17.9 11 Norte 27 Noroeste 0 -- -- 38
2019-04-03 22:00:00 19 13 Noroeste 30 Norte 0 -- -- 35
2019-04-03 21:00:00 20.4 6 Norte 18 Norte 0 -- -- 32
2019-04-03 20:00:00 21.5 5 Norte 17 Nordeste 0 -- -- 36
2019-04-03 19:00:00 21.2 8 Sudoeste 19 Sudoeste 0 -- -- 52
2019-04-03 18:00:00 21.6 11 Sudoeste 19 Sudoeste 0 -- -- 46
2019-04-03 17:00:00 22.1 10 Sudoeste 24 Sudoeste 0 -- -- 45
2019-04-03 16:00:00 22 12 Sudoeste 28 Sudoeste 0 -- -- 43
2019-04-03 15:00:00 21.3 12 Sudoeste 24 Sudoeste 0 -- -- 47
2019-04-03 14:00:00 20.8 13 Sudoeste 23 Sudoeste 0 -- -- 48
2019-04-03 13:00:00 19.5 10 Sudoeste 23 Sudoeste 0 -- -- 61
2019-04-03 12:00:00 19.3 10 Sudoeste 19 Sudoeste 0 -- -- 62
2019-04-03 11:00:00 19 6 Sudeste 13 Sudeste 0 -- -- 74
2019-04-03 10:00:00 17.3 5 Sur 9 Sur 0 -- -- 80
2019-04-03 09:00:00 15.2 4 Sudoeste 8 Oeste 0 -- -- 89
2019-04-03 08:00:00 14.7 2 Oeste 15 Noroeste 0 -- -- 82
2019-04-03 07:00:00 16.7 7 Noroeste 20 Noroeste 0 -- -- 56
2019-04-03 06:00:00 16.9 8 Noroeste 21 Noroeste 0 -- -- 56
2019-04-03 05:00:00 15.6 4 Noroeste 15 Norte 0 -- -- 63
2019-04-03 04:00:00 17 4 Oeste 23 Noroeste 0 -- -- 61
2019-04-03 03:00:00 16.2 3 Noroeste 19 Norte 0 -- -- 66
2019-04-03 02:00:00 15.6 5 Noroeste 13 Noroeste 0 -- -- 69
2019-04-03 01:00:00 15.7 4 Oeste 11 Sudoeste 0 -- -- 74
2019-04-03 00:00:00 17.2 3 Norte 10 Noroeste 0 -- -- 67
2019-04-02 23:00:00 16 0 Calma 8 Oeste 0 -- -- 75
2019-04-02 22:00:00 16.2 4 Oeste 8 Sudoeste 0 -- -- 72
2019-04-02 21:00:00 17.5 2 Sudoeste 9 Oeste 0 -- -- 72
2019-04-02 20:00:00 18.4 4 Oeste 17 Sudoeste 0 -- -- 61
2019-04-02 19:00:00 18.2 8 Sudoeste 24 Sudoeste 0 -- -- 66
2019-04-02 18:00:00 19 10 Sudoeste 27 Sudoeste 0 -- -- 67
2019-04-02 17:00:00 19.9 9 Sudoeste 28 Sudoeste 0 -- -- 64
2019-04-02 16:00:00 19.5 12 Sudoeste 24 Sudoeste 0 -- -- 62
2019-04-02 15:00:00 19.5 9 Sudoeste 18 Sudoeste 0 -- -- 59
2019-04-02 14:00:00 18.9 8 Sur 15 Sudeste 0 -- -- 65
2019-04-02 13:00:00 18.4 6 Sudeste 15 Sudeste 0 -- -- 63
2019-04-02 12:00:00 18.1 5 Sudeste 12 Sur 0 -- -- 66
2019-04-02 11:00:00 16.9 3 Sur 10 Sudeste 0 -- -- 73
2019-04-02 10:00:00 15.5 4 Sur 7 Sur 0 -- -- 88
2019-04-02 09:00:00 12.5 0 Calma 3 Nordeste 0 -- -- 96
2019-04-02 08:00:00 10.9 0 Calma 2 Sudoeste 0 -- -- 95
2019-04-02 07:00:00 11.1 0 Calma 3 Noroeste 0 -- -- 94
2019-04-02 06:00:00 11.4 0 Calma 2 Sudoeste 0 -- -- 92
2019-04-02 05:00:00 12.2 0 Calma 4 Oeste 0 -- -- 90
2019-04-02 04:00:00 13 0 Calma 6 Noroeste 0 -- -- 86
2019-04-02 03:00:00 13.4 3 Oeste 12 Oeste 0 -- -- 89
2019-04-02 02:00:00 12.3 0 Calma 5 Oeste 0 -- -- 92
2019-04-02 01:00:00 12.8 0 Calma 3 Norte 0 -- -- 92
2019-04-02 00:00:00 13.2 0 Calma 3 Noroeste 0 -- -- 90
2019-04-01 23:00:00 13.5 3 Noroeste 8 Nordeste 0 -- -- 89
2019-04-01 22:00:00 14.4 3 Nordeste 7 Noroeste 0 -- -- 82
2019-04-01 21:00:00 15.1 2 Oeste 14 Sudoeste 0 -- -- 83
2019-04-01 20:00:00 15.8 2 Oeste 17 Oeste 0 -- -- 79
2019-04-01 19:00:00 16.7 9 Sudoeste 22 Sudoeste 0 -- -- 75
2019-04-01 18:00:00 16.8 9 Sudoeste 22 Sudoeste 0 -- -- 77
2019-04-01 17:00:00 16.6 7 Sudoeste 19 Sudoeste 0 -- -- 80
2019-04-01 16:00:00 15.6 4 Sur 14 Sudoeste 0.2 -- -- 88
2019-04-01 15:00:00 16.1 7 Sudoeste 15 Sudoeste 1.4 -- -- 88
2019-04-01 14:00:00 16.3 4 Sur 15 Sudoeste 0 -- -- 84
2019-04-01 13:00:00 16.4 5 Sur 13 Sudeste 0.6 -- -- 88
2019-04-01 12:00:00 15.5 4 Sudeste 15 Sudeste 0.6 -- -- 90
2019-04-01 11:00:00 15.2 4 Sur 10 Sur 0 -- -- 95
2019-04-01 10:00:00 14 0 Calma 6 Sudoeste 0.4 -- -- 97
2019-04-01 09:00:00 13.5 0 Calma 5 Nordeste 0.4 -- -- 97
2019-04-01 08:00:00 12.3 0 Calma 3 Este 0 -- -- 97
2019-04-01 07:00:00 11.6 0 Calma 4 Nordeste 0 -- -- 96
2019-04-01 06:00:00 12 0 Calma 4 Nordeste 0 -- -- 96
2019-04-01 05:00:00 12.5 0 Calma 6 Nordeste 0 -- -- 95
2019-04-01 04:00:00 13.3 0 Calma 3 Oeste 0 -- -- 95
2019-04-01 03:00:00 13.9 0 Calma 4 Oeste 0.4 -- -- 94
2019-04-01 02:00:00 13.7 0 Calma 10 Oeste 0 -- -- 93
2019-04-01 01:00:00 14.1 2 Sudoeste 3 Sudoeste 0 -- -- 92
2019-04-01 00:00:00 14.3 0 Calma 10 Oeste 0 -- -- 91
2019-03-31 23:00:00 14.4 0 Calma 11 Oeste 0 -- -- 89
2019-03-31 22:00:00 14.7 3 Oeste 11 Oeste 0 -- -- 88
2019-03-31 21:00:00 15 3 Oeste 17 Sudoeste 0 -- -- 88
2019-03-31 20:00:00 15.2 3 Oeste 18 Sudoeste 0.4 -- -- 89
2019-03-31 19:00:00 16 8 Sudoeste 27 Sudoeste 0 -- -- 84
2019-03-31 18:00:00 16.7 12 Sudoeste 27 Oeste 0 -- -- 80
2019-03-31 17:00:00 17 10 Sudoeste 24 Sudoeste 0 -- -- 78
2019-03-31 16:00:00 17.2 12 Sudoeste 24 Sudoeste 0 -- -- 80
2019-03-31 15:00:00 15.9 11 Sudoeste 21 Sudoeste 0 -- -- 89
2019-03-31 14:00:00 15.8 6 Sudoeste 14 Sudoeste 0 -- -- 91
2019-03-31 13:00:00 14.9 4 Sudoeste 9 Sudoeste 0 -- -- 95
2019-03-31 12:00:00 14.2 2 Sur 6 Sudoeste 0.2 -- -- 97
2019-03-31 11:00:00 13.2 3 Sudoeste 6 Sur 2.2 -- -- 97
2019-03-31 10:00:00 12.9 0 Calma 4 Nordeste 1.8 -- -- 96
2019-03-31 09:00:00 12.7 2 Este 5 Sudoeste 3 -- -- 96
2019-03-31 08:00:00 12.5 4 Sudoeste 6 Sudoeste 2.4 -- -- 96
2019-03-31 07:00:00 12.8 3 Oeste 8 Oeste 0.8 -- -- 95
2019-03-31 06:00:00 13.2 0 Calma 2 Oeste 0.8 -- -- 95
2019-03-31 05:00:00 13.2 0 Calma 6 Este 0.8 -- -- 95
2019-03-31 03:00:00 13.6 4 Sudeste 15 Sur 0.4 -- -- 93
2019-03-31 01:00:00 13.9 6 Sudeste 15 Sudeste 0 -- -- 90
2019-03-31 00:00:00 14.2 6 Sudeste 17 Este 0 -- -- 88
2019-03-30 23:00:00 14.8 9 Sudeste 20 Sudeste 0 -- -- 83
2019-03-30 22:00:00 14.9 8 Sudeste 15 Este 0 -- -- 80
2019-03-30 21:00:00 14.5 2 Sudeste 8 Sudoeste 0 -- -- 79
2019-03-30 20:00:00 14.6 4 Sudeste 10 Sudeste 0 -- -- 78
2019-03-30 19:00:00 14.9 5 Sudeste 13 Sur 0 -- -- 76
2019-03-30 18:00:00 15.2 6 Sudeste 14 Este 0 -- -- 73
2019-03-30 17:00:00 15.2 9 Sudeste 25 Sudeste 0 -- -- 74
2019-03-30 16:00:00 15.5 9 Sudeste 26 Sudeste 0 -- -- 73
2019-03-30 15:00:00 15.4 11 Sudeste 24 Sudeste 0 -- -- 71
2019-03-30 14:00:00 15.9 10 Sudeste 26 Sudeste 0 -- -- 67
2019-03-30 13:00:00 15.6 14 Sudeste 26 Este 0 -- -- 68
2019-03-30 12:00:00 16.5 16 Sudeste 28 Sudeste 0 -- -- 64
2019-03-30 11:00:00 16.4 10 Sudeste 27 Sudeste 0 -- -- 60
2019-03-30 10:00:00 15.1 8 Sudeste 23 Sudeste 0 -- -- 66
2019-03-30 09:00:00 14.2 12 Sudeste 21 Sudeste 0 -- -- 70
2019-03-30 08:00:00 13.9 7 Sudeste 19 Sur 0 -- -- 73
2019-03-30 07:00:00 13.7 5 Sudeste 18 Sudeste 0 -- -- 72
2019-03-30 06:00:00 13.8 5 Sudeste 24 Sudeste 0 -- -- 72
2019-03-30 05:00:00 14 8 Sur 18 Sudoeste 0 -- -- 72
2019-03-30 04:00:00 14.2 5 Sur 15 Sur 0 -- -- 73
2019-03-30 03:00:00 14.2 5 Sur 18 Sudeste 0 -- -- 71
2019-03-30 02:00:00 14.3 7 Sur 21 Sur 0 -- -- 74
2019-03-30 01:00:00 14.4 5 Sur 21 Sudeste 0 -- -- 74
2019-03-30 00:00:00 14.6 8 Sudeste 24 Sur 0 -- -- 73
2019-03-29 23:00:00 14.7 9 Sudeste 23 Sudeste 0 -- -- 71
2019-03-29 22:00:00 14.8 8 Sur 18 Sur 0 -- -- 71
2019-03-29 21:00:00 14.7 5 Sudeste 14 Sudeste 0 -- -- 71
2019-03-29 20:00:00 14.6 5 Sudeste 10 Sudoeste 0 -- -- 70
2019-03-29 19:00:00 14.8 3 Sur 15 Sudeste 0 -- -- 69
2019-03-29 18:00:00 15.6 6 Sur 16 Sur 0 -- -- 67
2019-03-29 17:00:00 16 9 Sudeste 20 Sudeste 0 -- -- 64
2019-03-29 16:00:00 16.7 7 Sudeste 22 Sudeste 0 -- -- 60
2019-03-29 15:00:00 16.9 9 Sur 26 Sudeste 0 -- -- 61
2019-03-29 14:00:00 17.2 13 Sudeste 24 Sudoeste 0 -- -- 58
2019-03-29 13:00:00 16.4 10 Sur 26 Sur 0 -- -- 60
2019-03-29 12:00:00 16.6 10 Sur 27 Sudeste 0 -- -- 59
2019-03-29 11:00:00 15.1 8 Sur 21 Sudeste 0 -- -- 63
2019-03-29 10:00:00 15.4 8 Sur 23 Sudeste 0 -- -- 63
2019-03-29 09:00:00 15.5 9 Sudeste 24 Sudeste 0 -- -- 61
2019-03-29 08:00:00 14.5 9 Sur 24 Sudeste 0 -- -- 62
2019-03-29 07:00:00 14 7 Sur 22 Sudeste 0 -- -- 59
2019-03-29 06:00:00 14.2 6 Sur 21 Sudeste 0 -- -- 56
2019-03-29 05:00:00 14.3 8 Sudeste 23 Sur 0 -- -- 57
2019-03-29 04:00:00 14.4 9 Sudeste 23 Sur 0 -- -- 54
2019-03-29 03:00:00 14.5 10 Sudeste 23 Sudeste 0 -- -- 51
2019-03-29 02:00:00 14.2 7 Sudeste 24 Sudeste 0 -- -- 57
2019-03-29 01:00:00 14.1 6 Sudeste 21 Este 0 -- -- 62
2019-03-29 00:00:00 14.2 6 Sudeste 19 Sudeste 0 -- -- 63
2019-03-28 23:00:00 14.4 10 Sudeste 21 Sudeste 0 -- -- 66
2019-03-28 22:00:00 14.6 8 Sudeste 24 Sudeste 0 -- -- 65
2019-03-28 21:00:00 14.7 9 Este 25 Sudeste 0 -- -- 61
2019-03-28 20:00:00 14.7 8 Sudeste 19 Este 0 -- -- 63
2019-03-28 19:00:00 14.8 8 Este 21 Sudeste 0 -- -- 65
2019-03-28 18:00:00 15.4 13 Sudeste 24 Sudeste 0 -- -- 62
2019-03-28 17:00:00 16.3 10 Sudeste 24 Sudeste 0 -- -- 60
2019-03-28 16:00:00 17 10 Sudeste 26 Sudeste 0 -- -- 58
2019-03-28 15:00:00 16.9 15 Sudeste 30 Sudeste 0 -- -- 55
2019-03-28 14:00:00 16.7 15 Sudeste 34 Sudeste 0 -- -- 56
2019-03-28 13:00:00 16.7 18 Sudeste 32 Sudeste 0 -- -- 52
2019-03-28 12:00:00 16.8 14 Sudeste 27 Sudeste 0 -- -- 49
2019-03-28 11:00:00 16.7 13 Sudeste 23 Este 0 -- -- 46
2019-03-28 10:00:00 16.1 10 Este 26 Sudeste 0 -- -- 50
2019-03-28 09:00:00 15.1 14 Sudeste 25 Sudeste 0 -- -- 52
2019-03-28 08:00:00 14.1 15 Sudeste 25 Sudeste 0 -- -- 53
2019-03-28 07:00:00 13.4 10 Sudeste 27 Sudeste 0 -- -- 59
2019-03-28 06:00:00 13.4 12 Sudeste 24 Sudeste 0 -- -- 61
2019-03-28 05:00:00 13.4 10 Sudeste 25 Sudeste 0 -- -- 63
2019-03-28 04:00:00 13.4 8 Sudeste 22 Sudeste 0 -- -- 63
2019-03-28 03:00:00 13.4 6 Sudeste 21 Sudeste 0 -- -- 64
2019-03-28 02:00:00 13.9 6 Sudeste 29 Sudeste 0 -- -- 63
2019-03-28 01:00:00 14.4 12 Sudeste 27 Sudeste 0 -- -- 56
2019-03-28 00:00:00 14.6 8 Sudeste 28 Sudeste 0 -- -- 65
2019-03-27 23:00:00 14.8 11 Sudeste 24 Sudeste 0 -- -- 65
2019-03-27 22:00:00 14.9 9 Sudeste 22 Sur 0 -- -- 64
2019-03-27 21:00:00 14.9 6 Sudeste 16 Sudeste 0 -- -- 66
2019-03-27 20:00:00 15 7 Sudeste 15 Sur 0 -- -- 65
2019-03-27 19:00:00 15.1 6 Sudeste 17 Sudeste 0 -- -- 57
2019-03-27 18:00:00 15.7 9 Sudeste 24 Sudeste 0 -- -- 56
2019-03-27 17:00:00 16.9 11 Sudeste 25 Este 0 -- -- 51
2019-03-27 16:00:00 17.3 11 Sudeste 25 Sudeste 0 -- -- 50
2019-03-27 15:00:00 17.8 11 Sudeste 31 Sudeste 0 -- -- 45
2019-03-27 14:00:00 17.9 11 Sudeste 33 Sudeste 0 -- -- 43
2019-03-27 13:00:00 17.8 13 Sudeste 33 Sudeste 0 -- -- 41
2019-03-27 12:00:00 17.5 17 Sudeste 36 Sudeste 0 -- -- 37
2019-03-27 11:00:00 16.9 12 Sudeste 33 Sur 0 -- -- 39
2019-03-27 10:00:00 15.6 12 Sudeste 40 Sudeste 0 -- -- 43
2019-03-27 09:00:00 14.9 14 Sudeste 44 Sudeste 0 -- -- 52
2019-03-27 08:00:00 14.4 13 Sudeste 43 Sudeste 0 -- -- 52
2019-03-27 07:00:00 14.1 17 Sudeste 35 Sudeste 0 -- -- 50
2019-03-27 06:00:00 14.2 13 Sudeste 36 Sudeste 0 -- -- 51
2019-03-27 05:00:00 14.3 13 Sudeste 37 Este 0 -- -- 47
2019-03-27 04:00:00 14.4 14 Sudeste 39 Sudeste 0 -- -- 49
2019-03-27 03:00:00 14.1 11 Sudeste 33 Sur 0 -- -- 60
2019-03-27 02:00:00 14.4 12 Sudeste 31 Este 0 -- -- 60
2019-03-27 01:00:00 15.1 9 Sudeste 31 Sur 0 -- -- 59
2019-03-27 00:00:00 15.6 8 Sudeste 31 Sudeste 0 -- -- 59